St. Augustine, FL

5:12 AM EDT on May 23, 2017 (GMT -0400)
Saint Augustine

Weather History for KSGJ - November, 2012

Change the Weather History Date:

Saturday, November 17, 2012

  Actual Average Record
Temperature  
Mean Temperature 62 °F -  
Max Temperature 64 °F 70 °F 87 °F (1986)
Min Temperature 60 °F 54 °F 35 °F (1997)
Degree Days  
Heating Degree Days 3    
Growing Degree Days 12 (Base 50)    
Moisture  
Dew Point 59 °F    
Average Humidity 87    
Maximum Humidity 94    
Minimum Humidity 82    
Precipitation  
Precipitation 0.17 in - - ()
Sea Level Pressure  
Sea Level Pressure 30.20 in    
Wind  
Wind Speed 17 mph (North)    
Max Wind Speed 23 mph    
Max Gust Speed 30 mph    
Visibility 7 miles    
Events      
Averages and records for this station are not official NWS values.
T = Trace of Precipitation, MM = Missing Value Source: NWS Daily Summary

Daily Weather History Graph

Daily Weather History Graph

Search for Another Location

Airport or City:

Trip Planner

Search our weather history database for the weather conditions in past years. The results will help you decide how hot, cold, wet, or windy it might be!

Date:

Astronomy

Nov. 17, 2012 Rise Set
Actual Time 6:52 AM EST 5:28 PM EST
Civil Twilight 6:26 AM EST 5:53 PM EST
Nautical Twilight 5:57 AM EST 6:22 PM EST
Astronomical Twilight 5:29 AM EST 6:51 PM EST
Moon 10:35 AM EST (11/17) 9:35 PM EST (11/17)
Length of Visible Light 11h 26m
Length of Day
10h 35m
Waxing Crescent, 20% of the Moon is Illuminated
Nov 17
Waxing Crescent
Nov 20
First Quarter
Nov 28
Full
Dec 6
Last Quarter
Dec 13
New

Hourly Weather History & Observations

Time (EST) Temp. Dew Point Humidity Pressure Visibility Wind Dir Wind Speed Gust Speed Precip Events Conditions
12:58 AM 62.1 °F 57.0 °F 84% 30.19 in 10.0 mi North 15.0 mph 20.7 mph N/A   Overcast
1:13 AM 62.6 °F 57.2 °F 82% 30.19 in 10.0 mi North 17.3 mph 23.0 mph N/A   Overcast
1:58 AM 62.1 °F 57.9 °F 86% 30.17 in 10.0 mi North 16.1 mph - N/A   Overcast
2:58 AM 63.0 °F 59.0 °F 87% 30.17 in 10.0 mi North 12.7 mph - N/A   Overcast
3:58 AM 64.0 °F 59.0 °F 84% 30.16 in 9.0 mi North 17.3 mph 23.0 mph N/A   Overcast
4:58 AM 64.0 °F 59.0 °F 84% 30.17 in 10.0 mi NNE 17.3 mph 24.2 mph N/A   Overcast
5:58 AM 64.0 °F 60.1 °F 87% 30.18 in 10.0 mi North 11.5 mph - N/A   Overcast
6:04 AM 64.4 °F 60.8 °F 88% 30.18 in 10.0 mi North 15.0 mph - N/A   Overcast
6:09 AM 64.4 °F 60.8 °F 88% 30.18 in 10.0 mi North 13.8 mph - N/A   Overcast
6:51 AM 64.4 °F 60.8 °F 88% 30.19 in 3.0 mi NNE 17.3 mph 23.0 mph N/A   Overcast
6:58 AM 64.0 °F 60.1 °F 87% 30.19 in 3.0 mi NNE 19.6 mph 25.3 mph N/A   Overcast
7:58 AM 63.0 °F 60.1 °F 90% 30.20 in 4.0 mi North 15.0 mph 19.6 mph 0.16 in   Overcast
8:03 AM 62.6 °F 60.8 °F 94% 30.20 in 4.0 mi North 15.0 mph 23.0 mph N/A   Overcast
8:58 AM 64.0 °F 61.0 °F 90% 30.20 in 4.0 mi North 13.8 mph 20.7 mph N/A   Overcast
9:58 AM 64.9 °F 61.0 °F 87% 30.22 in 3.0 mi North 16.1 mph - 0.00 in   Overcast
10:58 AM 64.9 °F 62.1 °F 90% 30.22 in 4.0 mi North 18.4 mph - 0.01 in   Overcast
11:58 AM 64.9 °F 61.0 °F 87% 30.21 in 4.0 mi North 18.4 mph 27.6 mph N/A   Overcast
12:21 PM 64.4 °F 60.8 °F 88% 30.20 in 4.0 mi North 23.0 mph 29.9 mph N/A   Overcast
12:58 PM 64.0 °F 60.1 °F 87% 30.19 in 3.0 mi North 19.6 mph 25.3 mph N/A   Overcast
1:58 PM 62.1 °F 57.9 °F 86% 30.18 in 3.0 mi North 21.9 mph 27.6 mph N/A   Overcast
2:58 PM 62.1 °F 57.9 °F 86% 30.19 in 7.0 mi North 21.9 mph 28.8 mph N/A   Overcast
3:58 PM 62.1 °F 57.9 °F 86% 30.19 in 3.0 mi North 19.6 mph 24.2 mph N/A   Overcast
4:58 PM 61.0 °F 57.9 °F 90% 30.21 in 3.0 mi North 17.3 mph 26.5 mph N/A   Overcast
5:58 PM 61.0 °F 57.9 °F 90% 30.22 in 5.0 mi North 20.7 mph 27.6 mph N/A   Overcast
6:58 PM 61.0 °F 57.0 °F 87% 30.23 in 10.0 mi North 20.7 mph 29.9 mph N/A   Overcast
7:58 PM 60.1 °F 57.0 °F 90% 30.24 in 6.0 mi North 21.9 mph 27.6 mph N/A   Overcast
8:58 PM 60.1 °F 57.0 °F 90% 30.24 in 9.0 mi North 19.6 mph 25.3 mph N/A   Overcast
9:58 PM 60.1 °F 55.9 °F 86% 30.25 in 10.0 mi North 17.3 mph 26.5 mph N/A   Overcast
10:58 PM 61.0 °F 57.0 °F 87% 30.23 in 10.0 mi North 17.3 mph 21.9 mph N/A   Overcast
11:58 PM 60.1 °F 55.9 °F 86% 30.22 in 10.0 mi North 17.3 mph 21.9 mph N/A   Overcast